Delta Virtual Airport Information Service

Honolulu International Airport

ICAO: PHNL Country: United States
Latitude: 21.3187 Longitude: -157.922
Latest Arrival : HAL482 (2) (NTAA-PHNL) Latest Departure : SWA1771 (B) (PHNL-KSJC)


WX CaptureLIVE
Data provided by noaa.gov | Fetched at 12:52:41

METAR : PHNL 281653Z 00000KT 10SM FEW025 SCT050 SCT200 23/19 A3006

TAF : PHNL 281402Z 2814/2918 04005KT P6SM SCT025 SCT045 FM282000 05014KT P6SM FEW030 SCT050 FM290600 05006KT P6SM FEW025 SCT045


Runway Data for PHNL
Data provided by openaviationdata.com

Runway ID Mag Var Hdg Length Elevation Surface ILS Freq ILS Id ILS Slope
04L 11 41° 6958 ft 13 ft Asphalt -- -- --
04R 11 41° 9009 ft 13 ft Asphalt 110.5 IIUM 3
08L 11 79° 12294 ft 13 ft Asphalt 111.7 IHNL 3
08R 11 79° 11995 ft 13 ft Asphalt -- -- --
22L 11 221° 9009 ft 13 ft Asphalt -- -- --
22R 11 221° 6958 ft 13 ft Asphalt -- -- --
26L 11 259° 11995 ft 13 ft Asphalt 109.1 IEPC 0
26R 11 259° 12294 ft 13 ft Asphalt -- -- --

Honolulu International Airport, United States
Use only for reference purposes



Not for navigational purposes.